Location: Владивосток
(43.1151°N, 131.8856°E)
Time: 09:23:35
(UTC+10:00)

SPROUT - Pass Details

Date: 03 July 2022
Orbit: 588 x 598 km, 97.9° (Epoch: 18 August)

Event Time Altitude Azimuth Distance (km) Brightness Sun altitude
Exits shadow 00:58:25 17° 87° (E) 1,501 ? -23.7°
Maximum altitude 00:59:33 19° 65° (ENE) 1,416 ? -23.8°
Drops below altitude 10° 01:02:31 10° 20° (NNE) 1,925 ? -23.8°
Sets 01:05:10 0° 3° (N) 2,832 ? -23.8°
